{"data":{"norad_id":61860,"intl_designator":"2024-202R","name":"STARLINK-32316","alt_names":[],"object_type":"PAYLOAD","status":"ACTIVE","operator":null,"country":"US","launch_date":"2024-11-07","launch_site_code":"AFETR","launch_vehicle":null,"mission":null,"orbit_class":"UNKNOWN","rcs_meters":null,"size_class":null,"mass_kg":null,"dimensions":null,"purposes":["comms"],"wikipedia_slug":null,"has_3d_model":false,"image_url":null,"decayed_at":null,"tle_current":{"epoch":"2026-09-21T13:06:23.331168Z","epoch_age_seconds":98184,"freshness":"FRESH","line1":"1 61860U 24202R   26264.54610337 -.00002962  00000+0 -98182-4 0  9992","line2":"2 61860  43.0023 208.2314 0001268 275.4215  84.6492 15.27576717105320","mean_motion":15.27576717,"eccentricity":0.0001268,"inclination_deg":43.0023,"raan_deg":208.2314,"arg_perigee_deg":275.4215,"mean_anomaly_deg":84.6492,"bstar":-9.8182e-5,"rev_number":10532,"period_min":94.266951307559,"perigee_km":482.18892689683,"apogee_km":483.9289261838,"semimajor_km":6861.1959265403,"source":"CELESTRAK","updated_at":"2026-09-22T09:00:49.442737Z"}}}